{"data":{"norad_id":62324,"intl_designator":"2024-240B","name":"HULIANWANG DIGUI-02","alt_names":[],"object_type":"PAYLOAD","status":"ACTIVE","operator":null,"country":"PRC","launch_date":"2024-12-16","launch_site_code":"WSC","launch_vehicle":null,"mission":null,"orbit_class":"UNKNOWN","rcs_meters":null,"size_class":null,"mass_kg":null,"dimensions":null,"purposes":[],"wikipedia_slug":null,"has_3d_model":false,"image_url":null,"decayed_at":null,"tle_current":{"epoch":"2026-05-25T04:33:51.819840Z","epoch_age_seconds":55279,"freshness":"FRESH","line1":"1 62324U 24240B   26145.19018310  .00000038  00000+0  55572-4 0  9998","line2":"2 62324  86.5030 351.1525 0001521  81.3405 278.7902 13.24409074 69603","mean_motion":13.24409074,"eccentricity":0.0001521,"inclination_deg":86.503,"raan_deg":351.1525,"arg_perigee_deg":81.3405,"mean_anomaly_deg":278.7902,"bstar":5.5572e-5,"rev_number":6960,"period_min":108.72773588382,"perigee_km":1166.777946857,"apogee_km":1169.0734591313,"semimajor_km":7546.0627029942,"source":"CELESTRAK","updated_at":"2026-05-25T13:38:02.935594Z"}}}